TAP011 LPPT-SBRF

Flight info

Callsign TAP011
Flight time N/A
Altitude 35000
Route BEVOP DCT BAROK UN873 SAMAR/N0446F300 DCT LIMAL/N0456F360 N873 IPERA UN873 CVS/N0437F280 UB623 UBRUT
Aircraft A21N/M-SDE2E3FGHIRWXY/LB1

Departure

Time 2026-04-28 06:55
Airport Lisbon Humberto Delgado Airport (LPPT)

Arrival

Time N/A
Airport Recife/Guararapes - Gilberto Freyre International Airport (SBRF)
Time Latitude Longitude Altitude Speed Heading
2026-04-28 06:24 38.77115 -9.13121 353 ft 0 kts 78°
2026-04-28 06:44 38.77115 -9.13123 324 ft 2 kts 78°
2026-04-28 06:44 38.77110 -9.13153 349 ft 2 kts 78°
2026-04-28 06:45 38.77107 -9.13181 353 ft 4 kts 96°
2026-04-28 06:45 38.77115 -9.13202 351 ft 4 kts 164°
2026-04-28 06:45 38.77139 -9.13210 352 ft 2 kts 167°
2026-04-28 06:45 38.77141 -9.13210 352 ft 1 kts 167°
2026-04-28 06:49 38.77131 -9.13207 351 ft 3 kts 167°
2026-04-28 06:50 38.77101 -9.13198 350 ft 6 kts 167°
2026-04-28 06:50 38.77051 -9.13185 347 ft 9 kts 167°
2026-04-28 06:50 38.76980 -9.13165 344 ft 12 kts 168°
2026-04-28 06:50 38.76891 -9.13141 344 ft 15 kts 168°
2026-04-28 06:51 38.76784 -9.13128 345 ft 17 kts 227°
2026-04-28 06:51 38.76763 -9.13276 346 ft 18 kts 256°
2026-04-28 06:51 38.76719 -9.13408 355 ft 15 kts 215°
2026-04-28 06:51 38.76650 -9.13503 352 ft 16 kts 260°
2026-04-28 06:52 38.76629 -9.13641 356 ft 17 kts 257°
2026-04-28 06:52 38.76604 -9.13790 351 ft 18 kts 259°
2026-04-28 06:52 38.76580 -9.13947 353 ft 18 kts 258°
2026-04-28 06:52 38.76521 -9.14067 355 ft 15 kts 229°
2026-04-28 06:53 38.76502 -9.14198 351 ft 16 kts 294°
2026-04-28 06:53 38.76544 -9.14321 348 ft 15 kts 292°
2026-04-28 06:53 38.76576 -9.14404 339 ft 10 kts 321°
2026-04-28 06:53 38.76634 -9.14394 351 ft 3 kts 23°
2026-04-28 06:54 38.76635 -9.14394 351 ft 0 kts 23°
2026-04-28 06:54 38.76679 -9.14370 348 ft 31 kts 23°
2026-04-28 06:54 38.77097 -9.14148 360 ft 97 kts 22°
2026-04-28 06:54 38.77895 -9.13720 370 ft 150 kts 22°
2026-04-28 06:55 38.78982 -9.13134 503 ft 179 kts 22°
2026-04-28 06:55 38.80099 -9.12486 1137 ft 177 kts 25°
2026-04-28 06:55 38.81161 -9.11655 1763 ft 180 kts 33°
2026-04-28 06:55 38.82274 -9.10794 2253 ft 197 kts 30°
2026-04-28 06:56 38.83524 -9.09883 2753 ft 215 kts 29°
2026-04-28 06:56 38.84896 -9.08902 3147 ft 239 kts 29°
2026-04-28 06:56 38.86401 -9.07775 3524 ft 260 kts 35°
2026-04-28 06:56 38.87667 -9.06096 4193 ft 267 kts 60°
2026-04-28 06:57 38.88218 -9.03825 4935 ft 271 kts 88°
2026-04-28 06:57 38.87894 -9.01457 5684 ft 273 kts 114°
2026-04-28 06:57 38.86959 -8.99332 6464 ft 275 kts 126°
2026-04-28 06:57 38.85611 -8.97599 7209 ft 277 kts 147°
2026-04-28 06:58 38.83831 -8.96689 7968 ft 279 kts 172°
2026-04-28 06:58 38.81891 -8.96682 8756 ft 281 kts 187°
2026-04-28 06:58 38.79983 -8.97244 9557 ft 283 kts 196°
2026-04-28 06:58 38.78073 -8.97988 10146 ft 294 kts 197°
2026-04-28 06:59 38.76055 -8.98788 10457 ft 314 kts 197°
2026-04-28 06:59 38.73901 -8.99631 10732 ft 334 kts 197°
2026-04-28 06:59 38.71624 -9.00516 11076 ft 349 kts 197°
2026-04-28 06:59 38.69283 -9.01422 11700 ft 355 kts 197°
2026-04-28 07:00 38.66894 -9.02343 12433 ft 358 kts 197°
2026-04-28 07:00 38.64496 -9.03266 13145 ft 362 kts 197°
2026-04-28 07:00 38.62075 -9.04197 13821 ft 365 kts 197°
2026-04-28 07:00 38.59630 -9.05135 14419 ft 369 kts 197°
2026-04-28 07:01 38.57161 -9.06082 14998 ft 372 kts 197°
2026-04-28 07:01 38.54667 -9.07038 15596 ft 376 kts 197°
2026-04-28 07:01 38.52153 -9.08000 16187 ft 379 kts 197°
2026-04-28 07:01 38.49614 -9.08971 16796 ft 382 kts 197°
2026-04-28 07:02 38.47057 -9.09947 17355 ft 385 kts 197°
2026-04-28 07:02 38.44480 -9.10932 17904 ft 389 kts 197°
2026-04-28 07:02 38.41872 -9.11928 18416 ft 393 kts 197°
2026-04-28 07:02 38.39249 -9.12929 18908 ft 395 kts 197°
2026-04-28 07:03 38.36608 -9.13936 19388 ft 397 kts 197°
2026-04-28 07:03 38.33955 -9.14946 19879 ft 399 kts 197°
2026-04-28 07:03 38.31280 -9.15964 20379 ft 401 kts 197°
2026-04-28 07:03 38.28602 -9.16981 20876 ft 403 kts 197°
2026-04-28 07:04 38.25910 -9.18003 21391 ft 404 kts 197°
2026-04-28 07:04 38.23209 -9.19028 21888 ft 406 kts 197°
2026-04-28 07:04 38.20488 -9.20060 22375 ft 409 kts 197°
2026-04-28 07:04 38.17757 -9.21096 22861 ft 411 kts 197°
2026-04-28 07:05 38.15013 -9.22137 23337 ft 413 kts 197°
2026-04-28 07:05 38.12250 -9.23181 23745 ft 415 kts 197°
2026-04-28 07:05 38.09472 -9.24232 24143 ft 417 kts 197°
2026-04-28 07:05 38.07629 -9.24930 24405 ft 418 kts 197°
2026-04-28 07:06 38.04837 -9.25985 24799 ft 420 kts 197°
2026-04-28 07:06 38.02026 -9.27046 25174 ft 422 kts 197°
2026-04-28 07:06 37.99207 -9.28108 25568 ft 423 kts 197°
2026-04-28 07:06 37.96378 -9.29175 25943 ft 425 kts 197°
2026-04-28 07:07 37.93536 -9.30246 26314 ft 427 kts 197°
2026-04-28 07:07 37.90684 -9.31318 26674 ft 429 kts 197°
2026-04-28 07:07 37.87822 -9.32393 27013 ft 430 kts 197°
2026-04-28 07:07 37.84009 -9.33825 27472 ft 433 kts 197°
2026-04-28 07:08 37.82058 -9.34557 27690 ft 434 kts 197°
2026-04-28 07:08 37.79156 -9.35645 27998 ft 436 kts 197°
2026-04-28 07:08 37.76242 -9.36737 28325 ft 438 kts 197°
2026-04-28 07:08 37.73318 -9.37832 28632 ft 439 kts 197°
2026-04-28 07:09 37.70380 -9.38930 28939 ft 441 kts 197°
2026-04-28 07:09 37.67441 -9.40029 29295 ft 441 kts 197°
2026-04-28 07:09 37.64497 -9.41129 29701 ft 440 kts 197°
2026-04-28 07:09 37.61571 -9.42220 30093 ft 438 kts 197°
2026-04-28 07:10 37.58650 -9.43307 30431 ft 437 kts 197°
2026-04-28 07:10 37.55733 -9.44394 30761 ft 436 kts 197°
2026-04-28 07:10 37.52832 -9.45475 31082 ft 435 kts 197°
2026-04-28 07:10 37.49929 -9.46555 31412 ft 434 kts 197°
2026-04-28 07:11 37.47042 -9.47627 31755 ft 432 kts 197°
2026-04-28 07:11 37.44161 -9.48695 32076 ft 431 kts 197°
2026-04-28 07:11 37.41290 -9.49760 32375 ft 430 kts 197°
2026-04-28 07:11 37.38422 -9.50825 32661 ft 429 kts 197°
2026-04-28 07:12 37.35557 -9.51888 32942 ft 429 kts 197°
2026-04-28 07:12 37.32701 -9.52945 33205 ft 428 kts 197°
2026-04-28 07:12 37.29843 -9.54000 33436 ft 428 kts 197°
2026-04-28 07:12 37.26989 -9.55054 33678 ft 427 kts 197°
2026-04-28 07:13 37.24141 -9.56106 33896 ft 427 kts 197°
2026-04-28 07:13 37.21287 -9.57159 34094 ft 427 kts 197°
2026-04-28 07:13 37.18440 -9.58208 34251 ft 427 kts 197°
2026-04-28 07:13 37.15587 -9.59260 34400 ft 427 kts 197°
2026-04-28 07:14 37.12735 -9.60310 34558 ft 427 kts 197°
2026-04-28 07:14 37.09918 -9.61346 34709 ft 428 kts 197°
2026-04-28 07:14 37.07064 -9.62395 34847 ft 428 kts 197°
2026-04-28 07:15 37.01336 -9.64495 34935 ft 429 kts 197°
2026-04-28 07:15 36.95612 -9.66593 34909 ft 429 kts 197°
2026-04-28 07:16 36.89888 -9.68687 34906 ft 429 kts 197°
2026-04-28 07:16 36.84161 -9.70780 34901 ft 429 kts 197°
2026-04-28 07:17 36.78436 -9.72868 34901 ft 428 kts 197°
2026-04-28 07:17 36.72712 -9.74953 34901 ft 428 kts 197°
2026-04-28 07:18 36.66983 -9.77036 34897 ft 429 kts 197°
2026-04-28 07:18 36.61255 -9.79116 34907 ft 429 kts 197°
2026-04-28 07:19 36.55529 -9.81192 34896 ft 428 kts 197°
2026-04-28 07:19 36.49812 -9.83261 34904 ft 428 kts 197°
2026-04-28 07:20 36.44081 -9.85332 34904 ft 429 kts 197°
2026-04-28 07:20 36.38350 -9.87401 34907 ft 429 kts 197°
2026-04-28 07:21 36.32618 -9.89464 34896 ft 428 kts 197°
2026-04-28 07:21 36.26889 -9.91524 34907 ft 428 kts 197°
2026-04-28 07:22 36.18300 -9.94609 34909 ft 429 kts 197°
2026-04-28 07:22 36.12571 -9.96663 34899 ft 429 kts 197°
2026-04-28 07:23 36.06840 -9.98717 34904 ft 429 kts 197°
2026-04-28 07:23 36.01146 -10.00746 34902 ft 429 kts 197°
2026-04-28 07:24 35.95611 -10.03388 34897 ft 427 kts 212°
2026-04-28 07:24 35.90816 -10.07696 34907 ft 427 kts 218°
2026-04-28 07:25 35.86103 -10.12145 34909 ft 427 kts 217°
2026-04-28 07:25 35.81366 -10.16553 34914 ft 427 kts 217°
2026-04-28 07:26 35.76618 -10.20948 34918 ft 427 kts 217°
2026-04-28 07:26 35.71862 -10.25347 34908 ft 427 kts 217°
2026-04-28 07:27 35.67109 -10.29735 34915 ft 427 kts 217°
2026-04-28 07:27 35.62350 -10.34122 34912 ft 428 kts 217°
2026-04-28 07:28 35.57590 -10.38503 34927 ft 428 kts 217°
2026-04-28 07:28 35.52829 -10.42877 34930 ft 427 kts 217°
2026-04-28 07:29 35.48072 -10.47248 34922 ft 427 kts 217°
2026-04-28 07:29 35.43308 -10.51611 34923 ft 427 kts 217°
2026-04-28 07:30 35.38545 -10.55969 34915 ft 427 kts 217°
2026-04-28 07:30 35.33766 -10.60334 34925 ft 429 kts 217°
2026-04-28 07:31 35.28979 -10.64699 34939 ft 429 kts 217°
2026-04-28 07:31 35.24182 -10.69066 34927 ft 430 kts 217°
2026-04-28 07:32 35.19382 -10.73425 34933 ft 430 kts 217°
2026-04-28 07:32 35.14583 -10.77786 34935 ft 430 kts 217°
2026-04-28 07:33 35.09780 -10.82142 34936 ft 430 kts 217°
2026-04-28 07:33 35.04975 -10.86492 34928 ft 430 kts 217°
2026-04-28 07:34 35.00173 -10.90834 34934 ft 430 kts 217°
2026-04-28 07:34 34.95357 -10.95182 34938 ft 431 kts 217°
2026-04-28 07:35 34.90512 -10.99548 34940 ft 433 kts 217°
2026-04-28 07:35 34.85661 -11.03913 34946 ft 433 kts 217°
2026-04-28 07:36 34.80811 -11.08271 34945 ft 434 kts 217°
2026-04-28 07:36 34.75990 -11.12595 34945 ft 434 kts 217°
2026-04-28 07:37 34.71135 -11.16944 34948 ft 434 kts 217°
2026-04-28 07:37 34.66272 -11.21294 34949 ft 434 kts 217°
2026-04-28 07:38 34.61411 -11.25636 34947 ft 434 kts 217°
2026-04-28 07:38 34.56554 -11.30000 34947 ft 434 kts 217°
2026-04-28 07:39 34.51682 -11.34373 34951 ft 437 kts 218°
2026-04-28 07:39 34.46788 -11.38756 34953 ft 437 kts 218°
2026-04-28 07:40 34.41893 -11.43133 34954 ft 438 kts 218°
2026-04-28 07:40 34.36992 -11.47508 34955 ft 438 kts 218°
2026-04-28 07:41 34.32086 -11.51877 34956 ft 438 kts 218°
2026-04-28 07:41 34.27184 -11.56240 34958 ft 438 kts 218°
2026-04-28 07:42 34.22278 -11.60596 34959 ft 438 kts 218°
2026-04-28 07:42 34.17367 -11.64956 34948 ft 438 kts 218°
2026-04-28 07:43 34.12447 -11.69315 34958 ft 439 kts 218°
2026-04-28 07:43 34.07523 -11.73669 34960 ft 439 kts 218°
2026-04-28 07:44 34.02599 -11.78021 34967 ft 439 kts 218°
2026-04-28 07:44 33.97671 -11.82369 34968 ft 439 kts 218°
2026-04-28 07:45 33.92745 -11.86708 34968 ft 439 kts 218°
2026-04-28 07:45 33.87818 -11.91044 34967 ft 439 kts 218°
2026-04-28 07:46 33.82891 -11.95371 34973 ft 438 kts 218°
2026-04-28 07:46 33.77969 -11.99687 34973 ft 438 kts 218°
2026-04-28 07:47 33.73076 -12.03971 34975 ft 438 kts 218°
2026-04-28 07:47 33.68093 -12.08327 34973 ft 440 kts 218°
2026-04-28 07:48 33.63141 -12.12652 34975 ft 440 kts 218°
2026-04-28 07:48 33.58218 -12.16946 34973 ft 441 kts 218°
2026-04-28 07:49 33.53261 -12.21264 34982 ft 441 kts 218°
2026-04-28 07:49 33.48295 -12.25583 34982 ft 441 kts 218°
2026-04-28 07:50 33.43336 -12.29890 34981 ft 441 kts 218°
2026-04-28 07:50 33.38371 -12.34196 34987 ft 441 kts 218°
2026-04-28 07:51 33.33403 -12.38499 34988 ft 441 kts 218°
2026-04-28 07:51 33.28432 -12.42794 34983 ft 442 kts 218°
2026-04-28 07:52 33.24283 -12.46374 34987 ft 442 kts 218°
2026-04-28 07:52 33.19294 -12.50675 34991 ft 442 kts 218°
2026-04-28 07:53 33.14305 -12.54972 34993 ft 442 kts 218°
2026-04-28 07:53 33.09313 -12.59262 34994 ft 442 kts 218°
2026-04-28 07:54 33.04318 -12.63549 34999 ft 442 kts 218°
2026-04-28 07:54 32.99330 -12.67826 34995 ft 442 kts 218°
2026-04-28 07:55 32.94345 -12.72094 34997 ft 442 kts 218°
2026-04-28 07:55 32.89353 -12.76362 34997 ft 442 kts 218°
2026-04-28 07:56 32.84345 -12.80633 35001 ft 444 kts 218°
2026-04-28 07:56 32.79320 -12.84899 35003 ft 444 kts 218°
2026-04-28 07:57 32.74289 -12.89155 35003 ft 444 kts 218°
2026-04-28 07:57 32.69259 -12.93412 35006 ft 444 kts 218°
2026-04-28 07:58 32.64229 -12.97660 35006 ft 444 kts 218°
2026-04-28 07:58 32.59196 -13.01907 35006 ft 444 kts 218°
2026-04-28 07:59 32.54162 -13.06147 35006 ft 444 kts 218°
2026-04-28 07:59 32.49127 -13.10382 35009 ft 444 kts 218°
2026-04-28 08:00 32.44080 -13.14623 34998 ft 446 kts 219°
2026-04-28 08:00 32.39018 -13.18868 35009 ft 446 kts 219°
2026-04-28 08:01 32.33955 -13.23108 35025 ft 446 kts 219°
2026-04-28 08:01 32.28889 -13.27345 35020 ft 446 kts 219°
2026-04-28 08:02 32.23855 -13.31551 35019 ft 446 kts 219°
2026-04-28 08:02 32.18790 -13.35776 35022 ft 446 kts 219°
2026-04-28 08:03 32.13724 -13.39996 35015 ft 445 kts 219°
2026-04-28 08:03 32.08669 -13.44199 35020 ft 445 kts 219°
2026-04-28 08:04 32.03609 -13.48405 35024 ft 445 kts 219°
2026-04-28 08:04 31.98526 -13.52622 35020 ft 449 kts 219°
2026-04-28 08:05 31.93423 -13.56850 35021 ft 449 kts 219°
2026-04-28 08:05 31.88313 -13.61073 35023 ft 449 kts 219°
2026-04-28 08:06 31.83228 -13.65273 35018 ft 446 kts 220°
2026-04-28 08:06 31.78148 -13.69466 35027 ft 446 kts 220°
2026-04-28 08:07 31.73070 -13.73650 35024 ft 446 kts 220°
2026-04-28 08:07 31.67988 -13.77832 35023 ft 446 kts 220°
2026-04-28 08:08 31.62902 -13.82011 35029 ft 446 kts 220°
2026-04-28 08:08 31.57814 -13.86185 34999 ft 446 kts 220°
2026-04-28 08:09 31.52728 -13.90350 35026 ft 446 kts 220°
2026-04-28 08:09 31.47647 -13.94509 35037 ft 446 kts 220°
2026-04-28 08:10 31.42561 -13.98669 35040 ft 446 kts 220°
2026-04-28 08:10 31.37467 -14.02823 35040 ft 446 kts 220°
2026-04-28 08:11 31.32378 -14.06969 35037 ft 446 kts 220°
2026-04-28 08:11 31.27292 -14.11122 35029 ft 444 kts 220°
2026-04-28 08:12 31.22245 -14.15261 35038 ft 443 kts 220°
2026-04-28 08:12 31.17197 -14.19389 35048 ft 443 kts 220°
2026-04-28 08:13 31.12139 -14.23522 35042 ft 445 kts 220°
2026-04-28 08:13 31.07091 -14.27636 35048 ft 445 kts 220°
2026-04-28 08:14 31.02010 -14.31775 35045 ft 445 kts 220°
2026-04-28 08:14 30.96935 -14.35907 35037 ft 443 kts 220°
2026-04-28 08:15 30.91849 -14.40038 35048 ft 443 kts 220°
2026-04-28 08:15 30.86506 -14.43609 35051 ft 449 kts 212°
2026-04-28 08:16 30.80905 -14.46822 35051 ft 449 kts 212°
2026-04-28 08:16 30.75313 -14.50045 35051 ft 448 kts 212°
2026-04-28 08:17 30.69727 -14.53268 35028 ft 448 kts 212°
2026-04-28 08:17 30.64155 -14.56476 35047 ft 446 kts 212°
2026-04-28 08:18 30.58577 -14.59691 35051 ft 449 kts 212°
2026-04-28 08:18 30.52987 -14.62906 35057 ft 449 kts 212°
2026-04-28 08:19 30.47393 -14.66116 35057 ft 449 kts 212°
2026-04-28 08:19 30.41798 -14.69325 35062 ft 449 kts 212°
2026-04-28 08:20 30.36211 -14.72525 35053 ft 447 kts 212°
2026-04-28 08:20 30.30635 -14.75715 35061 ft 447 kts 212°
2026-04-28 08:21 30.25056 -14.78902 35064 ft 447 kts 212°
2026-04-28 08:21 30.19479 -14.82081 35065 ft 447 kts 212°
2026-04-28 08:22 30.13897 -14.85264 35062 ft 447 kts 212°
2026-04-28 08:22 30.08320 -14.88436 35055 ft 446 kts 212°
2026-04-28 08:23 30.02745 -14.91601 35066 ft 446 kts 212°
2026-04-28 08:23 29.97167 -14.94770 35055 ft 448 kts 212°
2026-04-28 08:24 29.91570 -14.97941 35067 ft 448 kts 212°
2026-04-28 08:24 29.85974 -15.01112 35070 ft 448 kts 211°
2026-04-28 08:25 29.80371 -15.04279 35070 ft 448 kts 212°
2026-04-28 08:26 29.71972 -15.09024 35072 ft 448 kts 211°
2026-04-28 08:26 29.66369 -15.12176 35070 ft 448 kts 211°
2026-04-28 08:27 29.60811 -15.15300 35069 ft 448 kts 211°
2026-04-28 08:27 29.55164 -15.18483 35071 ft 448 kts 211°
2026-04-28 08:28 29.49558 -15.21636 35061 ft 448 kts 211°
2026-04-28 08:28 29.43974 -15.24767 35068 ft 447 kts 211°
2026-04-28 08:29 29.38382 -15.27901 35081 ft 447 kts 211°
2026-04-28 08:29 29.32829 -15.31000 35070 ft 447 kts 211°
2026-04-28 08:30 29.27226 -15.34120 35068 ft 447 kts 211°
2026-04-28 08:30 29.21645 -15.37249 35074 ft 447 kts 211°
2026-04-28 08:31 29.16069 -15.40367 35073 ft 445 kts 211°
2026-04-28 08:31 29.10485 -15.43472 35070 ft 446 kts 211°
2026-04-28 08:32 29.04915 -15.46573 35066 ft 446 kts 211°
2026-04-28 08:32 28.99342 -15.49670 35069 ft 446 kts 211°
2026-04-28 08:33 28.93760 -15.52767 35066 ft 446 kts 211°
2026-04-28 08:33 28.88194 -15.55850 35062 ft 445 kts 211°
2026-04-28 08:34 28.82623 -15.58936 35069 ft 445 kts 211°
2026-04-28 08:34 28.77056 -15.62013 35069 ft 445 kts 211°
2026-04-28 08:35 28.71482 -15.65092 35061 ft 446 kts 210°
2026-04-28 08:35 28.65891 -15.68175 35069 ft 446 kts 210°
2026-04-28 08:36 28.60301 -15.71254 35058 ft 446 kts 210°
2026-04-28 08:36 28.54743 -15.74311 35067 ft 443 kts 210°
2026-04-28 08:37 28.50130 -15.76844 35071 ft 443 kts 210°
2026-04-28 08:37 28.44569 -15.79899 35071 ft 443 kts 210°
2026-04-28 08:38 28.39014 -15.82946 35074 ft 443 kts 210°
2026-04-28 08:38 28.33464 -15.85987 35074 ft 443 kts 210°
2026-04-28 08:39 28.27904 -15.89024 35067 ft 441 kts 210°
2026-04-28 08:39 28.22376 -15.92040 35071 ft 441 kts 210°
2026-04-28 08:40 28.16849 -15.95062 35073 ft 441 kts 210°
2026-04-28 08:40 28.11324 -15.98077 35072 ft 441 kts 210°
2026-04-28 08:41 28.05796 -16.01088 35063 ft 441 kts 210°
2026-04-28 08:41 28.00267 -16.04091 35054 ft 441 kts 210°
2026-04-28 08:42 27.94780 -16.07067 35068 ft 435 kts 211°
2026-04-28 08:42 27.89329 -16.10031 35071 ft 435 kts 211°
2026-04-28 08:43 27.83882 -16.12986 35067 ft 435 kts 211°
2026-04-28 08:43 27.78431 -16.15940 35064 ft 434 kts 211°
2026-04-28 08:44 27.72976 -16.18889 35067 ft 434 kts 211°
2026-04-28 08:44 27.67534 -16.21821 35046 ft 432 kts 211°
2026-04-28 08:45 27.62127 -16.24746 35055 ft 431 kts 211°
2026-04-28 08:45 27.56718 -16.27663 35063 ft 431 kts 211°
2026-04-28 08:46 27.51315 -16.30575 35065 ft 431 kts 211°
2026-04-28 08:46 27.45914 -16.33480 35064 ft 430 kts 211°
2026-04-28 08:47 27.40509 -16.36384 35069 ft 429 kts 210°
2026-04-28 08:47 27.35134 -16.39270 35057 ft 428 kts 210°
2026-04-28 08:48 27.29759 -16.42154 35066 ft 427 kts 210°
2026-04-28 08:48 27.24393 -16.45027 35067 ft 427 kts 210°
2026-04-28 08:49 27.19017 -16.47899 35070 ft 428 kts 210°
2026-04-28 08:49 27.13643 -16.50769 35074 ft 427 kts 210°
2026-04-28 08:50 27.08276 -16.53633 35074 ft 428 kts 210°
2026-04-28 08:50 27.02920 -16.56490 35069 ft 430 kts 210°
2026-04-28 08:51 26.97519 -16.59367 35077 ft 430 kts 210°
2026-04-28 08:51 26.92119 -16.62243 35076 ft 430 kts 210°
2026-04-28 08:52 26.86717 -16.65116 35076 ft 430 kts 210°
2026-04-28 08:52 26.81307 -16.67989 35077 ft 430 kts 210°
2026-04-28 08:53 26.75898 -16.70858 35075 ft 429 kts 210°
2026-04-28 08:53 26.70519 -16.73708 35074 ft 428 kts 210°
2026-04-28 08:54 26.65119 -16.76566 35075 ft 428 kts 210°
2026-04-28 08:54 26.59734 -16.79414 35080 ft 428 kts 210°
2026-04-28 08:55 26.54356 -16.82256 35079 ft 428 kts 210°